Time,TemperatureF,DewpointF,PressureIn,WindDirection,WindDirectionDegrees,WindSpeedMPH,WindSpeedGustMPH,Humidity,HourlyPrecipIn,Conditions,Clouds,dailyrainin,SoftwareType,DateUTC
2013-12-24 00:01:00,35.8,34.2,30.16,NW,315,0.0,0.0,94,0.00,,,0.60,WUHU216HW,2013-12-24 05:01:00,
2013-12-24 00:06:00,35.8,34.2,30.16,WNW,293,0.0,0.2,94,0.00,,,0.00,WUHU216HW,2013-12-24 05:06:00,
2013-12-24 00:11:00,35.6,34.0,30.16,NNW,338,0.0,0.2,94,0.00,,,0.00,WUHU216HW,2013-12-24 05:11:00,
2013-12-24 00:16:00,35.6,34.0,30.16,NNW,338,0.2,0.9,94,0.00,,,0.00,WUHU216HW,2013-12-24 05:16:00,
2013-12-24 00:21:00,35.5,33.8,30.16,NW,315,0.0,0.9,94,0.00,,,0.00,WUHU216HW,2013-12-24 05:21:00,
2013-12-24 00:26:00,35.3,33.7,30.16,NW,315,0.0,0.4,94,0.00,,,0.00,WUHU216HW,2013-12-24 05:26:00,
2013-12-24 00:31:00,35.1,33.5,30.16,NNW,338,0.0,0.0,94,0.00,,,0.00,WUHU216HW,2013-12-24 05:31:00,
2013-12-24 00:36:00,34.9,33.3,30.16,NW,315,0.0,0.2,94,0.00,,,0.00,WUHU216HW,2013-12-24 05:36:00,
2013-12-24 00:41:00,34.9,33.3,30.16,NNW,338,0.0,0.2,94,0.00,,,0.00,WUHU216HW,2013-12-24 05:41:00,
2013-12-24 00:46:00,34.9,33.3,30.16,NNW,338,0.0,0.4,94,0.00,,,0.00,WUHU216HW,2013-12-24 05:46:00,
2013-12-24 00:51:00,34.7,33.1,30.16,NE,45,0.7,0.7,94,0.00,,,0.00,WUHU216HW,2013-12-24 05:51:00,
2013-12-24 00:56:00,34.7,33.1,30.17,North,0,0.9,0.9,94,0.00,,,0.00,WUHU216HW,2013-12-24 05:56:00,
2013-12-24 01:01:00,34.7,33.1,30.16,North,0,0.7,0.9,94,0.00,,,0.00,WUHU216HW,2013-12-24 06:01:00,
2013-12-24 01:06:00,34.6,32.9,30.16,NW,315,0.4,0.9,94,0.00,,,0.00,WUHU216HW,2013-12-24 06:06:00,
2013-12-24 01:11:00,34.4,32.8,30.16,NNW,338,0.2,0.9,94,0.00,,,0.00,WUHU216HW,2013-12-24 06:11:00,
2013-12-24 01:16:00,34.2,32.6,30.16,NE,45,0.0,0.4,94,0.00,,,0.00,WUHU216HW,2013-12-24 06:16:00,
2013-12-24 01:21:00,34.2,32.6,30.17,NW,315,0.0,0.4,94,0.00,,,0.00,WUHU216HW,2013-12-24 06:21:00,
2013-12-24 01:26:00,34.0,32.4,30.17,NNW,338,0.2,0.7,94,0.00,,,0.00,WUHU216HW,2013-12-24 06:26:00,
2013-12-24 01:31:00,33.8,32.2,30.18,NW,315,0.4,0.7,94,0.00,,,0.00,WUHU216HW,2013-12-24 06:31:00,
2013-12-24 01:36:00,33.7,32.0,30.19,NW,315,0.2,0.4,94,0.00,,,0.00,WUHU216HW,2013-12-24 06:36:00,
2013-12-24 01:41:00,33.7,31.8,30.19,South,180,0.7,0.7,93,0.00,,,0.00,WUHU216HW,2013-12-24 06:41:00,
2013-12-24 01:46:00,33.5,31.6,30.19,NNW,338,0.2,0.9,93,0.00,,,0.00,WUHU216HW,2013-12-24 06:46:00,
2013-12-24 01:51:00,33.5,31.6,30.19,NNW,338,0.0,0.9,93,0.00,,,0.00,WUHU216HW,2013-12-24 06:51:00,
2013-12-24 01:56:00,33.3,31.4,30.18,NW,315,0.0,0.4,93,0.00,,,0.00,WUHU216HW,2013-12-24 06:56:00,
2013-12-24 02:01:00,33.1,31.3,30.18,NE,45,0.0,0.2,93,0.00,,,0.00,WUHU216HW,2013-12-24 07:01:00,
2013-12-24 02:06:00,33.1,31.3,30.18,North,0,0.0,0.4,93,0.00,,,0.00,WUHU216HW,2013-12-24 07:06:00,
2013-12-24 02:11:00,32.9,31.2,30.18,WNW,293,1.1,1.1,93,0.00,,,0.00,WUHU216HW,2013-12-24 07:11:00,
2013-12-24 02:16:00,32.8,31.0,30.19,WSW,248,0.0,1.1,93,0.00,,,0.00,WUHU216HW,2013-12-24 07:16:00,
2013-12-24 02:21:00,32.8,31.0,30.20,NW,315,0.0,0.7,93,0.00,,,0.00,WUHU216HW,2013-12-24 07:21:00,
2013-12-24 02:26:00,32.8,31.0,30.19,NNW,338,0.0,0.7,93,0.00,,,0.00,WUHU216HW,2013-12-24 07:26:00,
2013-12-24 02:31:00,32.4,30.6,30.19,North,0,0.4,2.0,93,0.00,,,0.00,WUHU216HW,2013-12-24 07:31:00,
2013-12-24 02:36:00,32.4,30.6,30.19,North,0,0.4,2.0,93,0.00,,,0.00,WUHU216HW,2013-12-24 07:36:00,
2013-12-24 02:41:00,32.2,30.4,30.19,WNW,293,0.2,1.1,93,0.00,,,0.00,WUHU216HW,2013-12-24 07:41:00,
2013-12-24 02:46:00,32.0,30.2,30.20,NW,315,0.0,1.8,93,0.00,,,0.00,WUHU216HW,2013-12-24 07:46:00,
2013-12-24 02:51:00,32.0,30.2,30.19,NNE,23,0.4,1.8,93,0.00,,,0.00,WUHU216HW,2013-12-24 07:51:00,
2013-12-24 02:56:00,32.0,30.2,30.19,NNW,338,0.0,0.7,93,0.00,,,0.00,WUHU216HW,2013-12-24 07:56:00,
2013-12-24 03:01:00,32.0,30.2,30.19,West,270,0.2,0.7,93,0.00,,,0.00,WUHU216HW,2013-12-24 08:01:00,
2013-12-24 03:06:00,31.9,30.3,30.19,North,0,0.0,1.1,94,0.00,,,0.00,WUHU216HW,2013-12-24 08:06:00,
2013-12-24 03:11:00,31.9,30.1,30.19,North,0,0.9,1.1,93,0.00,,,0.00,WUHU216HW,2013-12-24 08:11:00,
2013-12-24 03:16:00,31.7,29.9,30.19,West,270,0.0,0.9,93,0.00,,,0.00,WUHU216HW,2013-12-24 08:16:00,
2013-12-24 03:21:00,31.5,29.7,30.18,NNW,338,0.2,0.7,93,0.00,,,0.00,WUHU216HW,2013-12-24 08:21:00,
2013-12-24 03:26:00,31.3,29.8,30.18,West,270,0.9,0.9,94,0.00,,,0.00,WUHU216HW,2013-12-24 08:26:00,
2013-12-24 03:31:00,31.1,29.3,30.18,WNW,293,0.0,0.9,93,0.00,,,0.00,WUHU216HW,2013-12-24 08:31:00,
2013-12-24 03:36:00,31.0,29.4,30.18,NW,315,0.0,0.9,94,0.00,,,0.00,WUHU216HW,2013-12-24 08:36:00,
2013-12-24 03:41:00,31.0,29.4,30.18,NE,45,0.2,0.4,94,0.00,,,0.00,WUHU216HW,2013-12-24 08:41:00,
2013-12-24 03:46:00,30.8,29.3,30.17,NNE,23,0.2,0.9,94,0.00,,,0.00,WUHU216HW,2013-12-24 08:46:00,
2013-12-24 03:51:00,30.8,29.3,30.17,WNW,293,0.7,1.6,94,0.00,,,0.00,WUHU216HW,2013-12-24 08:51:00,
2013-12-24 03:56:00,30.6,29.1,30.17,NE,45,0.0,1.6,94,0.00,,,0.00,WUHU216HW,2013-12-24 08:56:00,
2013-12-24 04:01:00,30.6,29.1,30.17,WSW,248,0.2,0.9,94,0.00,,,0.00,WUHU216HW,2013-12-24 09:01:00,
2013-12-24 04:06:00,30.4,28.9,30.18,NW,315,0.4,0.4,94,0.00,,,0.00,WUHU216HW,2013-12-24 09:06:00,
2013-12-24 04:11:00,30.2,28.7,30.19,ENE,68,0.0,0.4,94,0.00,,,0.00,WUHU216HW,2013-12-24 09:11:00,
2013-12-24 04:16:00,30.1,28.5,30.19,East,90,0.0,0.0,94,0.00,,,0.00,WUHU216HW,2013-12-24 09:16:00,
2013-12-24 04:21:00,29.9,28.4,30.19,SW,225,0.0,0.0,94,0.00,,,0.00,WUHU216HW,2013-12-24 09:21:00,
2013-12-24 04:26:00,29.7,28.2,30.19,NNW,338,0.0,0.0,94,0.00,,,0.00,WUHU216HW,2013-12-24 09:26:00,
2013-12-24 04:31:00,29.5,28.0,30.19,SE,135,0.0,0.7,94,0.00,,,0.00,WUHU216HW,2013-12-24 09:31:00,
2013-12-24 04:36:00,29.7,28.2,30.19,North,0,0.0,0.7,94,0.00,,,0.00,WUHU216HW,2013-12-24 09:36:00,
2013-12-24 04:41:00,29.7,28.2,30.19,North,0,0.0,0.2,94,0.00,,,0.00,WUHU216HW,2013-12-24 09:41:00,
2013-12-24 04:46:00,29.5,28.0,30.19,WNW,293,0.0,0.2,94,0.00,,,0.00,WUHU216HW,2013-12-24 09:46:00,
2013-12-24 04:51:00,29.3,27.8,30.18,North,0,0.0,0.0,94,0.00,,,0.00,WUHU216HW,2013-12-24 09:51:00,
2013-12-24 04:56:00,29.3,27.8,30.17,NW,315,0.2,0.4,94,0.00,,,0.00,WUHU216HW,2013-12-24 09:56:00,
2013-12-24 05:01:00,29.5,28.0,30.19,ESE,113,0.0,0.4,94,0.00,,,0.00,WUHU216HW,2013-12-24 10:01:00,
2013-12-24 05:06:00,29.5,28.0,30.21,West,270,0.0,0.2,94,0.00,,,0.00,WUHU216HW,2013-12-24 10:06:00,
2013-12-24 05:11:00,29.3,27.8,30.21,ENE,68,0.0,0.2,94,0.00,,,0.00,WUHU216HW,2013-12-24 10:11:00,
2013-12-24 05:16:00,29.2,27.6,30.20,ENE,68,0.0,0.0,94,0.00,,,0.00,WUHU216HW,2013-12-24 10:16:00,
2013-12-24 05:21:00,29.2,27.6,30.19,NE,45,0.0,0.0,94,0.00,,,0.00,WUHU216HW,2013-12-24 10:21:00,
2013-12-24 05:26:00,29.2,27.6,30.19,NW,315,0.0,0.0,94,0.00,,,0.00,WUHU216HW,2013-12-24 10:26:00,
2013-12-24 05:31:00,29.2,27.6,30.19,NNW,338,0.0,0.0,94,0.00,,,0.00,WUHU216HW,2013-12-24 10:31:00,
2013-12-24 05:36:00,29.0,27.5,30.19,NW,315,0.0,0.4,94,0.00,,,0.00,WUHU216HW,2013-12-24 10:36:00,
2013-12-24 05:41:00,28.8,27.3,30.19,NNW,338,0.0,0.4,94,0.00,,,0.00,WUHU216HW,2013-12-24 10:41:00,
2013-12-24 05:46:00,28.4,26.9,30.19,NW,315,0.0,0.0,94,0.00,,,0.00,WUHU216HW,2013-12-24 10:46:00,
2013-12-24 05:51:00,28.4,26.9,30.19,NNW,338,0.0,0.0,94,0.00,,,0.00,WUHU216HW,2013-12-24 10:51:00,
2013-12-24 05:56:00,28.4,26.9,30.20,NW,315,0.0,0.2,94,0.00,,,0.00,WUHU216HW,2013-12-24 10:56:00,
2013-12-24 06:01:00,28.4,26.9,30.20,North,0,0.0,0.2,94,0.00,,,0.00,WUHU216HW,2013-12-24 11:01:00,
2013-12-24 06:06:00,28.4,26.9,30.20,NNE,23,0.0,0.0,94,0.00,,,0.00,WUHU216HW,2013-12-24 11:06:00,
2013-12-24 06:11:00,28.4,26.9,30.20,NW,315,0.0,0.0,94,0.00,,,0.00,WUHU216HW,2013-12-24 11:11:00,
2013-12-24 06:16:00,28.4,26.9,30.20,SSE,158,0.0,0.0,94,0.00,,,0.00,WUHU216HW,2013-12-24 11:16:00,
2013-12-24 06:21:00,28.4,26.9,30.20,NNE,23,0.2,0.2,94,0.00,,,0.00,WUHU216HW,2013-12-24 11:21:00,
2013-12-24 06:26:00,28.4,26.9,30.20,WSW,248,0.0,0.2,94,0.00,,,0.00,WUHU216HW,2013-12-24 11:26:00,
2013-12-24 06:31:00,28.4,26.9,30.19,North,0,0.2,0.2,94,0.00,,,0.00,WUHU216HW,2013-12-24 11:31:00,
2013-12-24 06:36:00,28.4,26.9,30.19,West,270,0.0,0.4,94,0.00,,,0.00,WUHU216HW,2013-12-24 11:36:00,
2013-12-24 06:41:00,28.4,26.9,30.19,SSW,203,0.4,0.4,94,0.00,,,0.00,WUHU216HW,2013-12-24 11:41:00,
2013-12-24 06:46:00,28.4,26.9,30.19,NNW,338,0.0,0.4,94,0.00,,,0.00,WUHU216HW,2013-12-24 11:46:00,
2013-12-24 06:51:00,28.4,26.9,30.19,NW,315,0.0,0.9,94,0.00,,,0.00,WUHU216HW,2013-12-24 11:51:00,
2013-12-24 06:56:00,28.4,26.9,30.19,West,270,0.0,0.9,94,0.00,,,0.00,WUHU216HW,2013-12-24 11:56:00,
2013-12-24 07:01:00,28.4,26.9,30.19,NW,315,0.2,0.4,94,0.00,,,0.00,WUHU216HW,2013-12-24 12:01:00,
2013-12-24 07:06:00,28.4,26.9,30.19,WSW,248,0.0,0.7,94,0.00,,,0.00,WUHU216HW,2013-12-24 12:06:00,
2013-12-24 07:11:00,28.4,26.9,30.21,SW,225,0.4,0.7,94,0.00,,,0.00,WUHU216HW,2013-12-24 12:11:00,
2013-12-24 07:16:00,28.4,26.9,30.21,NW,315,0.4,1.1,94,0.00,,,0.00,WUHU216HW,2013-12-24 12:16:00,
2013-12-24 07:21:00,28.4,26.6,30.21,NNW,338,0.0,1.1,93,0.00,,,0.00,WUHU216HW,2013-12-24 12:21:00,
2013-12-24 07:26:00,28.4,26.6,30.21,NW,315,0.2,0.4,93,0.00,,,0.00,WUHU216HW,2013-12-24 12:26:00,
2013-12-24 07:31:00,28.4,26.6,30.21,SE,135,0.0,0.4,93,0.00,,,0.00,WUHU216HW,2013-12-24 12:31:00,
2013-12-24 07:36:00,28.3,26.7,30.22,NW,315,0.0,0.0,94,0.00,,,0.00,WUHU216HW,2013-12-24 12:36:00,
2013-12-24 07:41:00,28.3,26.5,30.22,NNW,338,0.0,0.4,93,0.00,,,0.00,WUHU216HW,2013-12-24 12:41:00,
2013-12-24 07:46:00,28.4,26.6,30.22,North,0,0.0,0.4,93,0.00,,,0.00,WUHU216HW,2013-12-24 12:46:00,
2013-12-24 07:51:00,28.4,26.6,30.22,NE,45,0.2,0.7,93,0.00,,,0.00,WUHU216HW,2013-12-24 12:51:00,
2013-12-24 07:56:00,28.4,26.6,30.22,NW,315,0.0,0.7,93,0.00,,,0.00,WUHU216HW,2013-12-24 12:56:00,
2013-12-24 08:01:00,28.4,26.6,30.22,SW,225,0.2,0.2,93,0.00,,,0.00,WUHU216HW,2013-12-24 13:01:00,
2013-12-24 08:06:00,28.6,26.8,30.21,NNW,338,0.7,0.7,93,0.00,,,0.00,WUHU216HW,2013-12-24 13:06:00,
2013-12-24 08:11:00,28.8,27.0,30.19,WNW,293,0.0,1.6,93,0.00,,,0.00,WUHU216HW,2013-12-24 13:11:00,
2013-12-24 08:16:00,29.0,27.2,30.20,WNW,293,0.7,1.6,93,0.00,,,0.00,WUHU216HW,2013-12-24 13:16:00,
2013-12-24 08:21:00,29.2,27.2,30.22,NNW,338,0.2,0.7,92,0.00,,,0.00,WUHU216HW,2013-12-24 13:21:00,
2013-12-24 08:26:00,29.2,27.2,30.22,WSW,248,0.0,0.7,92,0.00,,,0.00,WUHU216HW,2013-12-24 13:26:00,
2013-12-24 08:31:00,29.3,27.4,30.20,West,270,1.1,1.1,92,0.00,,,0.00,WUHU216HW,2013-12-24 13:31:00,
2013-12-24 08:36:00,29.5,27.6,30.19,NW,315,0.0,1.1,92,0.00,,,0.00,WUHU216HW,2013-12-24 13:36:00,
2013-12-24 08:41:00,29.5,27.7,30.20,NNW,338,0.4,1.1,93,0.00,,,0.00,WUHU216HW,2013-12-24 13:41:00,
2013-12-24 08:46:00,29.5,27.6,30.20,NNW,338,0.4,0.4,92,0.00,,,0.00,WUHU216HW,2013-12-24 13:46:00,
2013-12-24 08:51:00,29.5,27.6,30.20,NNE,23,0.4,0.4,92,0.00,,,0.00,WUHU216HW,2013-12-24 13:51:00,
2013-12-24 08:56:00,29.5,27.0,30.22,North,0,0.4,0.4,90,0.00,,,0.00,WUHU216HW,2013-12-24 13:56:00,
2013-12-24 09:01:00,29.5,27.0,30.24,NW,315,0.9,0.9,90,0.00,,,0.00,WUHU216HW,2013-12-24 14:01:00,
2013-12-24 09:06:00,29.5,27.3,30.24,West,270,0.4,0.9,91,0.00,,,0.00,WUHU216HW,2013-12-24 14:06:00,
2013-12-24 09:11:00,29.5,27.0,30.24,SSW,203,0.4,0.9,90,0.00,,,0.00,WUHU216HW,2013-12-24 14:11:00,
2013-12-24 09:16:00,29.7,26.9,30.24,NW,315,1.1,1.1,89,0.00,,,0.00,WUHU216HW,2013-12-24 14:16:00,
2013-12-24 09:21:00,29.7,26.9,30.22,NW,315,1.1,1.1,89,0.00,,,0.00,WUHU216HW,2013-12-24 14:21:00,
2013-12-24 09:26:00,29.7,26.9,30.23,West,270,0.0,1.1,89,0.00,,,0.00,WUHU216HW,2013-12-24 14:26:00,
2013-12-24 09:31:00,29.7,26.9,30.24,NNW,338,0.0,1.1,89,0.00,,,0.00,WUHU216HW,2013-12-24 14:31:00,
2013-12-24 09:36:00,29.7,26.7,30.23,WSW,248,0.9,0.9,88,0.00,,,0.00,WUHU216HW,2013-12-24 14:36:00,
2013-12-24 09:41:00,29.5,26.5,30.22,North,0,0.0,0.9,88,0.00,,,0.00,WUHU216HW,2013-12-24 14:41:00,
2013-12-24 09:46:00,29.7,26.9,30.22,NW,315,0.0,0.9,89,0.00,,,0.00,WUHU216HW,2013-12-24 14:46:00,
2013-12-24 09:51:00,29.5,26.7,30.22,NW,315,0.0,0.0,89,0.00,,,0.00,WUHU216HW,2013-12-24 14:51:00,
2013-12-24 09:56:00,29.5,26.7,30.21,WSW,248,0.2,0.2,89,0.00,,,0.00,WUHU216HW,2013-12-24 14:56:00,
2013-12-24 10:01:00,29.7,26.9,30.22,NNW,338,0.0,0.2,89,0.00,,,0.00,WUHU216HW,2013-12-24 15:01:00,
2013-12-24 10:06:00,29.7,26.9,30.22,WNW,293,0.4,0.4,89,0.00,,,0.00,WUHU216HW,2013-12-24 15:06:00,
2013-12-24 10:11:00,29.9,27.1,30.20,NW,315,0.2,0.4,89,0.00,,,0.00,WUHU216HW,2013-12-24 15:11:00,
2013-12-24 10:16:00,29.9,27.1,30.19,WNW,293,0.0,0.2,89,0.00,,,0.00,WUHU216HW,2013-12-24 15:16:00,
2013-12-24 10:21:00,30.1,27.3,30.18,WNW,293,0.0,0.0,89,0.00,,,0.00,WUHU216HW,2013-12-24 15:21:00,
2013-12-24 10:26:00,30.1,27.0,30.19,South,180,0.0,0.0,88,0.00,,,0.00,WUHU216HW,2013-12-24 15:26:00,
2013-12-24 10:31:00,30.1,27.0,30.16,WNW,293,0.4,0.4,88,0.00,,,0.00,WUHU216HW,2013-12-24 15:31:00,
2013-12-24 10:36:00,30.2,27.2,30.15,NNW,338,0.0,0.4,88,0.00,,,0.00,WUHU216HW,2013-12-24 15:36:00,
2013-12-24 10:41:00,30.1,26.1,30.18,North,0,0.4,0.9,85,0.00,,,0.00,WUHU216HW,2013-12-24 15:41:00,
2013-12-24 10:46:00,30.2,26.6,30.19,North,0,0.2,0.9,86,0.00,,,0.00,WUHU216HW,2013-12-24 15:46:00,
2013-12-24 10:51:00,30.2,25.8,30.19,ESE,113,0.4,0.7,83,0.00,,,0.00,WUHU216HW,2013-12-24 15:51:00,
2013-12-24 10:56:00,30.2,26.3,30.19,NW,315,0.4,1.1,85,0.00,,,0.00,WUHU216HW,2013-12-24 15:56:00,
2013-12-24 11:01:00,30.2,26.0,30.18,NW,315,0.7,1.1,84,0.00,,,0.00,WUHU216HW,2013-12-24 16:01:00,
2013-12-24 11:06:00,30.4,26.5,30.18,NW,315,0.4,0.7,85,0.00,,,0.00,WUHU216HW,2013-12-24 16:06:00,
2013-12-24 11:11:00,30.4,26.5,30.18,NW,315,0.0,0.7,85,0.00,,,0.00,WUHU216HW,2013-12-24 16:11:00,
2013-12-24 11:16:00,30.4,26.5,30.19,NNW,338,1.6,1.6,85,0.00,,,0.00,WUHU216HW,2013-12-24 16:16:00,
2013-12-24 11:21:00,30.2,26.3,30.18,NW,315,1.8,1.8,85,0.00,,,0.00,WUHU216HW,2013-12-24 16:21:00,
2013-12-24 11:26:00,30.2,26.6,30.18,North,0,0.4,1.8,86,0.00,,,0.00,WUHU216HW,2013-12-24 16:26:00,
2013-12-24 11:31:00,30.2,26.6,30.18,NW,315,0.2,1.8,86,0.00,,,0.00,WUHU216HW,2013-12-24 16:31:00,
2013-12-24 11:36:00,30.2,26.6,30.18,NW,315,0.0,0.4,86,0.00,,,0.00,WUHU216HW,2013-12-24 16:36:00,
2013-12-24 11:41:00,30.2,26.6,30.17,SSW,203,0.7,0.7,86,0.00,,,0.00,WUHU216HW,2013-12-24 16:41:00,
2013-12-24 11:46:00,30.6,26.9,30.17,NNW,338,1.8,1.8,86,0.00,,,0.00,WUHU216HW,2013-12-24 16:46:00,
2013-12-24 11:51:00,30.6,26.9,30.17,NNW,338,0.4,1.8,86,0.00,,,0.00,WUHU216HW,2013-12-24 16:51:00,
2013-12-24 11:56:00,30.6,26.9,30.17,NNW,338,0.7,1.8,86,0.00,,,0.00,WUHU216HW,2013-12-24 16:56:00,
2013-12-24 12:01:00,30.8,27.1,30.16,North,0,1.1,1.1,86,0.00,,,0.00,WUHU216HW,2013-12-24 17:01:00,
2013-12-24 12:06:00,30.8,26.8,30.16,NW,315,0.2,1.1,85,0.00,,,0.00,WUHU216HW,2013-12-24 17:06:00,
2013-12-24 12:11:00,30.8,27.1,30.15,NW,315,0.0,1.1,86,0.00,,,0.00,WUHU216HW,2013-12-24 17:11:00,
2013-12-24 12:16:00,31.1,26.9,30.16,NNE,23,3.4,3.4,84,0.00,,,0.00,WUHU216HW,2013-12-24 17:16:00,
2013-12-24 12:21:00,31.3,26.8,30.16,NNW,338,0.2,3.4,83,0.00,,,0.00,WUHU216HW,2013-12-24 17:21:00,
2013-12-24 12:26:00,31.5,27.3,30.16,NW,315,0.0,1.6,84,0.00,,,0.00,WUHU216HW,2013-12-24 17:26:00,
2013-12-24 12:31:00,31.7,27.2,30.16,SW,225,1.1,1.1,83,0.00,,,0.00,WUHU216HW,2013-12-24 17:31:00,
2013-12-24 12:36:00,32.0,26.3,30.15,SW,225,0.7,1.3,79,0.00,,,0.00,WUHU216HW,2013-12-24 17:36:00,
2013-12-24 12:41:00,32.0,26.3,30.15,North,0,0.0,1.3,79,0.00,,,0.00,WUHU216HW,2013-12-24 17:41:00,
2013-12-24 12:46:00,32.4,27.3,30.15,NNW,338,0.7,0.7,81,0.00,,,0.00,WUHU216HW,2013-12-24 17:46:00,
2013-12-24 12:51:00,32.4,27.5,30.15,ENE,68,0.7,1.1,82,0.00,,,0.00,WUHU216HW,2013-12-24 17:51:00,
2013-12-24 12:56:00,32.4,27.3,30.14,NW,315,2.2,2.2,81,0.00,,,0.00,WUHU216HW,2013-12-24 17:56:00,
2013-12-24 13:01:00,32.6,27.7,30.14,North,0,1.3,2.2,82,0.00,,,0.00,WUHU216HW,2013-12-24 18:01:00,
2013-12-24 13:06:00,32.6,27.5,30.14,North,0,0.2,2.2,81,0.00,,,0.00,WUHU216HW,2013-12-24 18:06:00,
2013-12-24 13:11:00,32.6,27.5,30.14,WNW,293,0.7,0.7,81,0.00,,,0.00,WUHU216HW,2013-12-24 18:11:00,
2013-12-24 13:16:00,32.8,27.5,30.14,WNW,293,0.4,0.7,81,0.00,,,0.00,WUHU216HW,2013-12-24 18:16:00,
2013-12-24 13:21:00,32.8,27.3,30.14,SW,225,1.1,1.1,80,0.00,,,0.00,WUHU216HW,2013-12-24 18:21:00,
2013-12-24 13:26:00,32.9,27.5,30.13,North,0,1.3,1.6,80,0.00,,,0.00,WUHU216HW,2013-12-24 18:26:00,
2013-12-24 13:31:00,32.9,27.5,30.14,North,0,4.0,4.0,80,0.00,,,0.00,WUHU216HW,2013-12-24 18:31:00,
2013-12-24 13:36:00,32.9,27.5,30.13,North,0,0.7,4.0,80,0.00,,,0.00,WUHU216HW,2013-12-24 18:36:00,
2013-12-24 13:41:00,33.1,27.6,30.13,NW,315,0.9,0.9,80,0.00,,,0.00,WUHU216HW,2013-12-24 18:41:00,
2013-12-24 13:46:00,33.1,27.6,30.13,SSW,203,1.1,1.1,80,0.00,,,0.00,WUHU216HW,2013-12-24 18:46:00,
2013-12-24 13:51:00,33.3,27.8,30.13,East,90,0.4,1.1,80,0.00,,,0.00,WUHU216HW,2013-12-24 18:51:00,
2013-12-24 13:56:00,33.5,27.6,30.13,North,0,2.5,2.5,79,0.00,,,0.00,WUHU216HW,2013-12-24 18:56:00,
2013-12-24 14:01:00,33.5,27.6,30.13,West,270,1.6,2.5,79,0.00,,,0.00,WUHU216HW,2013-12-24 19:01:00,
2013-12-24 14:06:00,33.5,27.3,30.14,NNW,338,2.5,2.5,78,0.00,,,0.00,WUHU216HW,2013-12-24 19:06:00,
2013-12-24 14:11:00,33.3,27.1,30.14,NNW,338,1.1,2.5,78,0.00,,,0.00,WUHU216HW,2013-12-24 19:11:00,
2013-12-24 14:16:00,33.1,27.0,30.14,South,180,0.4,2.5,78,0.00,,,0.00,WUHU216HW,2013-12-24 19:16:00,
2013-12-24 14:21:00,32.9,26.8,30.14,South,180,0.2,1.1,78,0.00,,,0.00,WUHU216HW,2013-12-24 19:21:00,
2013-12-24 14:26:00,32.9,26.8,30.14,West,270,0.0,1.3,78,0.00,,,0.00,WUHU216HW,2013-12-24 19:26:00,
2013-12-24 14:31:00,32.8,27.0,30.14,South,180,0.0,1.3,79,0.00,,,0.00,WUHU216HW,2013-12-24 19:31:00,
2013-12-24 14:36:00,32.8,26.6,30.14,WNW,293,0.2,1.1,78,0.00,,,0.00,WUHU216HW,2013-12-24 19:36:00,
2013-12-24 14:41:00,32.6,26.5,30.14,West,270,0.2,1.1,78,0.00,,,0.00,WUHU216HW,2013-12-24 19:41:00,
2013-12-24 14:46:00,32.4,26.6,30.14,NNW,338,0.0,0.2,79,0.00,,,0.00,WUHU216HW,2013-12-24 19:46:00,
2013-12-24 14:51:00,32.6,26.5,30.14,ESE,113,0.4,0.4,78,0.00,,,0.00,WUHU216HW,2013-12-24 19:51:00,
2013-12-24 14:56:00,32.6,26.5,30.15,North,0,0.7,0.7,78,0.00,,,0.00,WUHU216HW,2013-12-24 19:56:00,
2013-12-24 15:01:00,32.6,26.5,30.14,NW,315,0.0,0.7,78,0.00,,,0.00,WUHU216HW,2013-12-24 20:01:00,
2013-12-24 15:06:00,32.6,26.8,30.14,WNW,293,0.0,0.7,79,0.00,,,0.00,WUHU216HW,2013-12-24 20:06:00,
2013-12-24 15:11:00,32.6,26.8,30.14,NNW,338,0.2,1.1,79,0.00,,,0.00,WUHU216HW,2013-12-24 20:11:00,
2013-12-24 15:16:00,32.6,26.5,30.14,WSW,248,0.0,1.1,78,0.00,,,0.00,WUHU216HW,2013-12-24 20:16:00,
2013-12-24 15:21:00,32.6,26.5,30.15,NNW,338,0.2,0.9,78,0.00,,,0.00,WUHU216HW,2013-12-24 20:21:00,
2013-12-24 15:26:00,32.4,26.6,30.15,NNW,338,0.4,0.4,79,0.00,,,0.00,WUHU216HW,2013-12-24 20:26:00,
2013-12-24 15:31:00,32.2,26.2,30.15,NNW,338,0.4,0.4,78,0.00,,,0.00,WUHU216HW,2013-12-24 20:31:00,
2013-12-24 15:36:00,32.2,26.5,30.15,North,0,0.2,0.4,79,0.00,,,0.00,WUHU216HW,2013-12-24 20:36:00,
2013-12-24 15:41:00,32.0,26.3,30.16,North,0,0.0,0.2,79,0.00,,,0.00,WUHU216HW,2013-12-24 20:41:00,
2013-12-24 15:46:00,32.0,26.3,30.16,NNW,338,0.0,0.2,79,0.00,,,0.00,WUHU216HW,2013-12-24 20:46:00,
2013-12-24 15:51:00,31.9,25.8,30.16,NNW,338,0.0,0.4,78,0.00,,,0.00,WUHU216HW,2013-12-24 20:51:00,
2013-12-24 15:56:00,31.9,26.1,30.16,West,270,0.0,0.4,79,0.00,,,0.00,WUHU216HW,2013-12-24 20:56:00,
2013-12-24 16:01:00,31.7,25.9,30.16,NW,315,0.0,0.0,79,0.00,,,0.00,WUHU216HW,2013-12-24 21:01:00,
2013-12-24 16:06:00,31.7,25.9,30.17,NNW,338,0.0,0.0,79,0.00,,,0.00,WUHU216HW,2013-12-24 21:06:00,
2013-12-24 16:11:00,31.5,25.7,30.16,NW,315,0.0,0.0,79,0.00,,,0.00,WUHU216HW,2013-12-24 21:11:00,
2013-12-24 16:16:00,31.5,25.7,30.17,West,270,0.0,0.0,79,0.00,,,0.00,WUHU216HW,2013-12-24 21:16:00,
2013-12-24 16:21:00,31.5,25.7,30.17,NNW,338,0.0,0.0,79,0.00,,,0.00,WUHU216HW,2013-12-24 21:21:00,
2013-12-24 16:26:00,31.3,25.6,30.17,NW,315,0.0,0.0,79,0.00,,,0.00,WUHU216HW,2013-12-24 21:26:00,
2013-12-24 16:31:00,31.3,25.6,30.17,NW,315,0.0,0.0,79,0.00,,,0.00,WUHU216HW,2013-12-24 21:31:00,
2013-12-24 16:36:00,31.3,25.9,30.17,NW,315,0.0,0.0,80,0.00,,,0.00,WUHU216HW,2013-12-24 21:36:00,
2013-12-24 16:41:00,31.1,25.7,30.18,NW,315,0.0,0.0,80,0.00,,,0.00,WUHU216HW,2013-12-24 21:41:00,
2013-12-24 16:46:00,31.0,25.6,30.17,NW,315,0.0,0.0,80,0.00,,,0.00,WUHU216HW,2013-12-24 21:46:00,
2013-12-24 16:51:00,31.0,25.8,30.18,NW,315,0.0,0.0,81,0.00,,,0.00,WUHU216HW,2013-12-24 21:51:00,
2013-12-24 16:56:00,31.0,25.8,30.18,NW,315,0.0,0.0,81,0.00,,,0.00,WUHU216HW,2013-12-24 21:56:00,
2013-12-24 17:01:00,31.0,25.8,30.18,NW,315,0.0,0.0,81,0.00,,,0.00,WUHU216HW,2013-12-24 22:01:00,
2013-12-24 17:06:00,31.0,25.8,30.18,NW,315,0.0,0.0,81,0.00,,,0.00,WUHU216HW,2013-12-24 22:06:00,
2013-12-24 17:11:00,31.0,25.8,30.18,NW,315,0.0,0.0,81,0.00,,,0.00,WUHU216HW,2013-12-24 22:11:00,
2013-12-24 17:16:00,31.0,25.8,30.18,NW,315,0.0,0.0,81,0.00,,,0.00,WUHU216HW,2013-12-24 22:16:00,
2013-12-24 17:21:00,30.8,25.9,30.18,NW,315,0.0,0.0,82,0.00,,,0.00,WUHU216HW,2013-12-24 22:21:00,
2013-12-24 17:26:00,30.6,25.7,30.18,NW,315,0.0,0.0,82,0.00,,,0.00,WUHU216HW,2013-12-24 22:26:00,
2013-12-24 17:31:00,30.6,25.7,30.19,NW,315,0.0,0.0,82,0.00,,,0.00,WUHU216HW,2013-12-24 22:31:00,
2013-12-24 17:36:00,30.6,25.7,30.19,NW,315,0.0,0.0,82,0.00,,,0.00,WUHU216HW,2013-12-24 22:36:00,
2013-12-24 17:41:00,30.6,25.7,30.19,NW,315,0.0,0.0,82,0.00,,,0.00,WUHU216HW,2013-12-24 22:41:00,
2013-12-24 17:46:00,30.6,25.7,30.19,NW,315,0.0,0.0,82,0.00,,,0.00,WUHU216HW,2013-12-24 22:46:00,
2013-12-24 17:51:00,30.6,25.7,30.19,NW,315,0.0,0.0,82,0.00,,,0.00,WUHU216HW,2013-12-24 22:51:00,
2013-12-24 17:56:00,30.6,25.7,30.20,NNW,338,0.4,0.4,82,0.00,,,0.00,WUHU216HW,2013-12-24 22:56:00,
2013-12-24 18:01:00,30.6,25.5,30.20,West,270,0.2,1.1,81,0.00,,,0.00,WUHU216HW,2013-12-24 23:01:00,
2013-12-24 18:06:00,30.8,23.8,30.20,West,270,1.1,1.3,75,0.00,,,0.00,WUHU216HW,2013-12-24 23:06:00,
2013-12-24 18:11:00,30.8,23.4,30.20,West,270,0.4,1.3,74,0.00,,,0.00,WUHU216HW,2013-12-24 23:11:00,
2013-12-24 18:16:00,31.0,24.6,30.20,West,270,0.2,1.1,77,0.00,,,0.00,WUHU216HW,2013-12-24 23:16:00,
2013-12-24 18:21:00,31.0,24.6,30.21,West,270,0.7,0.9,77,0.00,,,0.00,WUHU216HW,2013-12-24 23:21:00,
2013-12-24 18:26:00,30.8,22.1,30.21,West,270,0.7,1.1,70,0.00,,,0.00,WUHU216HW,2013-12-24 23:26:00,
2013-12-24 18:31:00,30.8,23.1,30.21,West,270,0.4,1.8,73,0.00,,,0.00,WUHU216HW,2013-12-24 23:31:00,
2013-12-24 18:36:00,30.6,23.2,30.21,West,270,0.2,1.8,74,0.00,,,0.00,WUHU216HW,2013-12-24 23:36:00,
2013-12-24 18:41:00,30.6,23.2,30.21,West,270,0.0,1.1,74,0.00,,,0.00,WUHU216HW,2013-12-24 23:41:00,
2013-12-24 18:46:00,30.4,23.4,30.21,West,270,0.0,0.4,75,0.00,,,0.00,WUHU216HW,2013-12-24 23:46:00,
2013-12-24 18:51:00,30.2,23.2,30.22,West,270,0.0,0.2,75,0.00,,,0.00,WUHU216HW,2013-12-24 23:51:00,
2013-12-24 18:56:00,30.2,22.0,30.22,West,270,0.0,0.9,71,0.00,,,0.00,WUHU216HW,2013-12-24 23:56:00,
2013-12-24 19:01:00,30.2,22.0,30.22,West,270,1.6,1.6,71,0.00,,,0.00,WUHU216HW,2013-12-25 00:01:00,
2013-12-24 19:06:00,30.2,21.2,30.22,West,270,2.0,2.0,69,0.00,,,0.00,WUHU216HW,2013-12-25 00:06:00,
2013-12-24 19:11:00,30.2,20.5,30.23,West,270,0.7,2.0,67,0.00,,,0.00,WUHU216HW,2013-12-25 00:11:00,
2013-12-24 19:16:00,30.2,22.0,30.23,West,270,0.2,1.8,71,0.00,,,0.00,WUHU216HW,2013-12-25 00:16:00,
2013-12-24 19:21:00,30.1,21.1,30.23,West,270,1.3,1.3,69,0.00,,,0.00,WUHU216HW,2013-12-25 00:21:00,
2013-12-24 19:26:00,29.9,20.9,30.23,West,270,0.4,1.3,69,0.00,,,0.00,WUHU216HW,2013-12-25 00:26:00,
2013-12-24 19:31:00,29.9,21.2,30.23,West,270,0.7,1.6,70,0.00,,,0.00,WUHU216HW,2013-12-25 00:31:00,
2013-12-24 19:36:00,29.7,21.2,30.24,West,270,0.4,2.2,70,0.00,,,0.00,WUHU216HW,2013-12-25 00:36:00,
2013-12-24 19:41:00,29.9,20.5,30.24,West,270,0.0,2.9,68,0.00,,,0.00,WUHU216HW,2013-12-25 00:41:00,
2013-12-24 19:46:00,29.7,19.7,30.24,West,270,0.0,2.9,66,0.00,,,0.00,WUHU216HW,2013-12-25 00:46:00,
2013-12-24 19:51:00,29.5,19.5,30.23,West,270,0.2,1.1,66,0.00,,,0.00,WUHU216HW,2013-12-25 00:51:00,
2013-12-24 19:56:00,29.2,20.6,30.23,West,270,0.7,0.7,70,0.00,,,0.00,WUHU216HW,2013-12-25 00:56:00,
2013-12-24 20:01:00,29.2,19.5,30.23,West,270,0.2,0.7,67,0.00,,,0.00,WUHU216HW,2013-12-25 01:01:00,
2013-12-24 20:06:00,28.8,18.9,30.24,West,270,0.2,0.2,66,0.00,,,0.00,WUHU216HW,2013-12-25 01:06:00,
2013-12-24 20:11:00,28.8,20.0,30.24,West,270,0.0,0.4,69,0.00,,,0.00,WUHU216HW,2013-12-25 01:11:00,
2013-12-24 20:16:00,28.4,20.0,30.24,West,270,0.4,0.4,70,0.00,,,0.00,WUHU216HW,2013-12-25 01:16:00,
2013-12-24 20:21:00,28.4,19.6,30.24,West,270,0.0,0.4,69,0.00,,,0.00,WUHU216HW,2013-12-25 01:21:00,
2013-12-24 20:26:00,28.4,20.0,30.23,West,270,0.0,0.0,70,0.00,,,0.00,WUHU216HW,2013-12-25 01:26:00,
2013-12-24 20:31:00,28.3,19.8,30.24,West,270,0.0,0.9,70,0.00,,,0.00,WUHU216HW,2013-12-25 01:31:00,
2013-12-24 20:36:00,28.1,19.6,30.24,West,270,0.0,0.9,70,0.00,,,0.00,WUHU216HW,2013-12-25 01:36:00,
2013-12-24 20:41:00,27.9,19.4,30.24,West,270,0.0,0.4,70,0.00,,,0.00,WUHU216HW,2013-12-25 01:41:00,
2013-12-24 20:46:00,27.7,19.3,30.24,West,270,0.0,0.0,70,0.00,,,0.00,WUHU216HW,2013-12-25 01:46:00,
2013-12-24 20:51:00,27.7,19.5,30.24,West,270,0.0,0.0,71,0.00,,,0.00,WUHU216HW,2013-12-25 01:51:00,
2013-12-24 20:56:00,27.5,19.4,30.24,West,270,0.0,0.0,71,0.00,,,0.00,WUHU216HW,2013-12-25 01:56:00,
2013-12-24 21:01:00,27.4,19.2,30.24,West,270,0.0,0.0,71,0.00,,,0.00,WUHU216HW,2013-12-25 02:01:00,
2013-12-24 21:06:00,27.0,18.8,30.24,West,270,0.0,0.0,71,0.00,,,0.00,WUHU216HW,2013-12-25 02:06:00,
2013-12-24 21:11:00,27.0,19.2,30.24,West,270,0.0,0.0,72,0.00,,,0.00,WUHU216HW,2013-12-25 02:11:00,
2013-12-24 21:16:00,27.2,19.0,30.25,West,270,0.4,0.4,71,0.00,,,0.00,WUHU216HW,2013-12-25 02:16:00,
2013-12-24 21:21:00,27.2,18.7,30.25,West,270,0.0,0.4,70,0.00,,,0.00,WUHU216HW,2013-12-25 02:21:00,
2013-12-24 21:26:00,27.4,18.9,30.25,West,270,0.0,2.2,70,0.00,,,0.00,WUHU216HW,2013-12-25 02:26:00,
2013-12-24 21:31:00,27.2,18.7,30.25,West,270,0.2,2.2,70,0.00,,,0.00,WUHU216HW,2013-12-25 02:31:00,
2013-12-24 21:36:00,27.0,18.5,30.25,West,270,0.0,0.4,70,0.00,,,0.00,WUHU216HW,2013-12-25 02:36:00,
2013-12-24 21:41:00,26.6,18.2,30.25,West,270,0.4,0.4,70,0.00,,,0.00,WUHU216HW,2013-12-25 02:41:00,
2013-12-24 21:46:00,26.5,18.0,30.25,West,270,0.4,0.7,70,0.00,,,0.00,WUHU216HW,2013-12-25 02:46:00,
2013-12-24 21:51:00,26.3,17.1,30.25,West,270,0.7,0.9,68,0.00,,,0.00,WUHU216HW,2013-12-25 02:51:00,
2013-12-24 21:56:00,26.3,17.5,30.25,West,270,0.2,0.9,69,0.00,,,0.00,WUHU216HW,2013-12-25 02:56:00,
2013-12-24 22:01:00,25.9,17.1,30.25,West,270,0.0,0.4,69,0.00,,,0.00,WUHU216HW,2013-12-25 03:01:00,
2013-12-24 22:06:00,25.7,16.9,30.26,West,270,0.0,0.4,69,0.00,,,0.00,WUHU216HW,2013-12-25 03:06:00,
2013-12-24 22:11:00,25.6,17.1,30.26,West,270,0.4,0.7,70,0.00,,,0.00,WUHU216HW,2013-12-25 03:11:00,
2013-12-24 22:16:00,25.6,17.1,30.26,West,270,0.0,0.7,70,0.00,,,0.00,WUHU216HW,2013-12-25 03:16:00,
2013-12-24 22:21:00,25.4,16.9,30.26,West,270,0.0,0.7,70,0.00,,,0.00,WUHU216HW,2013-12-25 03:21:00,
2013-12-24 22:26:00,24.8,16.8,30.26,West,270,0.0,0.7,71,0.00,,,0.00,WUHU216HW,2013-12-25 03:26:00,
2013-12-24 22:31:00,24.5,15.8,30.26,West,270,0.0,0.4,69,0.00,,,0.00,WUHU216HW,2013-12-25 03:31:00,
2013-12-24 22:36:00,24.3,15.9,30.26,West,270,0.2,1.1,70,0.00,,,0.00,WUHU216HW,2013-12-25 03:36:00,
2013-12-24 22:41:00,24.1,16.0,30.26,West,270,0.0,1.1,71,0.00,,,0.00,WUHU216HW,2013-12-25 03:41:00,
2013-12-24 22:46:00,24.1,16.0,30.26,West,270,0.0,0.0,71,0.00,,,0.00,WUHU216HW,2013-12-25 03:46:00,
2013-12-24 22:51:00,24.1,16.4,30.26,West,270,0.2,1.1,72,0.00,,,0.00,WUHU216HW,2013-12-25 03:51:00,
2013-12-24 22:56:00,24.1,16.4,30.26,West,270,0.0,1.1,72,0.00,,,0.00,WUHU216HW,2013-12-25 03:56:00,
2013-12-24 23:01:00,24.1,16.0,30.26,West,270,0.0,0.2,71,0.00,,,0.00,WUHU216HW,2013-12-25 04:01:00,
2013-12-24 23:06:00,24.3,16.2,30.26,West,270,0.0,0.4,71,0.00,,,0.00,WUHU216HW,2013-12-25 04:06:00,
2013-12-24 23:11:00,24.3,16.6,30.27,West,270,0.0,0.4,72,0.00,,,0.00,WUHU216HW,2013-12-25 04:11:00,
2013-12-24 23:16:00,24.1,16.4,30.27,West,270,0.0,0.4,72,0.00,,,0.00,WUHU216HW,2013-12-25 04:16:00,
2013-12-24 23:21:00,24.3,15.9,30.27,West,270,0.4,1.8,70,0.00,,,0.00,WUHU216HW,2013-12-25 04:21:00,
2013-12-24 23:26:00,24.8,15.7,30.27,West,270,0.4,2.2,68,0.00,,,0.00,WUHU216HW,2013-12-25 04:26:00,
2013-12-24 23:31:00,24.8,15.7,30.27,West,270,1.8,2.2,68,0.00,,,0.00,WUHU216HW,2013-12-25 04:31:00,
2013-12-24 23:36:00,24.8,16.0,30.27,West,270,1.1,1.8,69,0.00,,,0.00,WUHU216HW,2013-12-25 04:36:00,
2013-12-24 23:41:00,24.8,16.0,30.27,West,270,1.8,1.8,69,0.00,,,0.00,WUHU216HW,2013-12-25 04:41:00,
2013-12-24 23:46:00,24.8,15.7,30.27,West,270,2.5,2.5,68,0.00,,,0.00,WUHU216HW,2013-12-25 04:46:00,
2013-12-24 23:51:00,24.8,15.0,30.27,West,270,0.9,2.5,66,0.00,,,0.00,WUHU216HW,2013-12-25 04:51:00,
2013-12-24 23:56:00,24.8,15.0,30.27,West,270,0.2,1.8,66,0.00,,,0.00,WUHU216HW,2013-12-25 04:56:00,